Pontiac, MI

6:47 PM EST on December 08, 2019 (GMT -0500)
Oakland County International

Weather History for KPTK - November, 2019

Change the Weather History Date:

Thursday, November 14, 2019

  Actual Average Record
Temperature  
Mean Temperature 26 °F -  
Max Temperature 30 °F 44 °F 60 °F (1999)
Min Temperature 23 °F 31 °F 17 °F (2018)
Degree Days  
Heating Degree Days 38    
Moisture  
Dew Point 22 °F    
Average Humidity 81    
Maximum Humidity 88    
Minimum Humidity 72    
Precipitation  
Precipitation 0.00 in - - ()
Sea Level Pressure  
Sea Level Pressure 30.17 in    
Wind  
Wind Speed 8 mph (WSW)    
Max Wind Speed 14 mph    
Max Gust Speed 24 mph    
Visibility 6 miles    
Events Snow    
Averages and records for this station are not official NWS values.
T = Trace of Precipitation, MM = Missing Value Source: NWS Daily Summary

Daily Weather History Graph

Daily Weather History Graph

Search for Another Location

Airport or City:

Astronomy

Nov. 14, 2019 Rise Set
Actual Time 7:23 AM EST 5:11 PM EST
Civil Twilight 6:53 AM EST 5:42 PM EST
Nautical Twilight 6:19 AM EST 6:16 PM EST
Astronomical Twilight 5:45 AM EST 6:49 PM EST
Moon 6:55 PM EST (11/14) 9:19 AM EST (11/14)
Length of Visible Light 10h 48m
Length of Day
9h 48m
Waning Gibbous, 95% of the Moon is Illuminated
Nov 14
Waning Gibbous
Nov 19
Last Quarter
Nov 26
New
Dec 4
First Quarter
Dec 12
Full

Hourly Weather History & Observations

Time (EST) Temp. Windchill Dew Point Humidity Pressure Visibility Wind Dir Wind Speed Gust Speed Precip Events Conditions
12:53 AM 23.0 °F 13.1 °F 15.1 °F 72% 30.12 in 10.0 mi SSW 9.2 mph - N/A   Overcast
1:53 AM 23.0 °F 14.7 °F 15.1 °F 72% 30.13 in 10.0 mi SSW 6.9 mph - N/A   Overcast
2:53 AM 24.1 °F 16.0 °F 17.1 °F 75% 30.12 in 10.0 mi SSW 6.9 mph 17.3 mph N/A   Overcast
4:23 AM 24.1 °F 16.0 °F 19.0 °F 81% 30.07 in 1.8 mi SSW 6.9 mph - 0.00 in Snow Light Snow
4:53 AM 24.1 °F 17.0 °F 19.9 °F 84% 30.12 in 1.2 mi SSW 5.8 mph - 0.00 in Snow Light Snow
5:53 AM 24.1 °F 18.2 °F 21.0 °F 88% 30.14 in 1.0 mi SSW 4.6 mph - 0.00 in Snow Light Snow
6:53 AM 24.1 °F 17.0 °F 21.0 °F 88% 30.14 in 1.0 mi SSW 5.8 mph - 0.00 in Snow Light Snow
7:34 AM 24.1 °F 17.0 °F 21.0 °F 88% 30.11 in 1.2 mi SSW 5.8 mph - 0.00 in Snow Light Snow
7:50 AM 24.8 °F 17.9 °F 21.2 °F 86% 30.11 in 2.5 mi SW 5.8 mph - 0.00 in   Overcast
7:53 AM 25.0 °F 18.1 °F 21.0 °F 85% 30.16 in 2.5 mi SW 5.8 mph - 0.00 in   Overcast
8:53 AM 25.0 °F 16.3 °F 21.0 °F 85% 30.17 in 3.0 mi WSW 8.1 mph - N/A   Overcast
9:53 AM 26.1 °F 16.8 °F 21.0 °F 81% 30.18 in 4.0 mi WSW 9.2 mph - N/A   Overcast
10:19 AM 27.0 °F 20.5 °F 21.9 °F 81% 30.14 in 4.0 mi SW 5.8 mph - N/A   Overcast
10:31 AM 28.0 °F 20.0 °F 21.9 °F 78% 30.15 in 5.0 mi WSW 8.1 mph - N/A   Overcast
10:53 AM 28.0 °F 20.0 °F 21.9 °F 78% 30.20 in 6.0 mi West 8.1 mph - N/A   Haze
11:53 AM 28.9 °F 20.4 °F 23.0 °F 78% 30.19 in 7.0 mi West 9.2 mph - N/A   Overcast
12:53 PM 28.9 °F 21.1 °F 24.1 °F 82% 30.19 in 6.0 mi West 8.1 mph - N/A   Haze
1:53 PM 28.9 °F 20.4 °F 24.1 °F 82% 30.19 in 5.0 mi West 9.2 mph - N/A   Haze
2:37 PM 28.9 °F 22.8 °F 25.0 °F 85% 30.14 in 4.0 mi WSW 5.8 mph - N/A   Overcast
2:53 PM 28.9 °F 21.1 °F 25.0 °F 85% 30.18 in 4.0 mi West 8.1 mph - N/A   Overcast
3:53 PM 28.9 °F 21.9 °F 25.0 °F 85% 30.20 in 4.0 mi West 6.9 mph - N/A   Overcast
4:53 PM 30.0 °F 24.1 °F 25.0 °F 82% 30.21 in 4.0 mi WSW 5.8 mph - N/A   Overcast
5:53 PM 30.0 °F 23.2 °F 25.0 °F 82% 30.22 in 5.0 mi WSW 6.9 mph - N/A   Overcast
6:14 PM 30.0 °F 22.4 °F 25.0 °F 82% 30.18 in 7.0 mi SW 8.1 mph - N/A   Overcast
6:53 PM 30.0 °F 23.2 °F 25.0 °F 82% 30.22 in 8.0 mi SW 6.9 mph - N/A   Overcast
7:25 PM 30.0 °F 20.0 °F 24.1 °F 79% 30.19 in 9.0 mi WSW 12.7 mph - N/A   Overcast
7:53 PM 30.0 °F 20.0 °F 24.1 °F 79% 30.22 in 9.0 mi WSW 12.7 mph - N/A   Overcast
8:53 PM 30.0 °F 20.0 °F 23.0 °F 75% 30.22 in 9.0 mi WSW 12.7 mph - N/A   Overcast
9:53 PM 30.0 °F 20.5 °F 21.9 °F 72% 30.23 in 10.0 mi WSW 11.5 mph 23.0 mph N/A   Overcast
10:53 PM 30.0 °F 19.5 °F 21.9 °F 72% 30.22 in 10.0 mi WSW 13.8 mph 24.2 mph N/A   Overcast
11:53 PM 28.9 °F 18.6 °F 21.9 °F 75% 30.23 in 10.0 mi West 12.7 mph 19.6 mph N/A   Overcast